When you browse on this site, cookies collect data to enhance your experience and personalize the content and advertising you see.
Visit our Privacy Policy to learn more. By continuing to use the site, you agree to this use of cookies and data.
  • In Hungary
  • List of Countries
  • For 7 days
  • Water Temperature
  • Weather Map
  • News
  • Weather Widgets
  • user-avatar
    Login

    Hourly Weather Voronovo

    Today, 23 January, Thursday

    Time Temperature Precipitation Wind Pressure Humidity
    00:00 -5°C° 0.1 mm 6 mps 734 mmHg 86%
    01:00 -5°C° 0 mm 6 mps 734 mmHg 86%
    02:00 -6°C° 0 mm 5 mps 735 mmHg 87%
    03:00 -6°C° 0 mm 5 mps 735 mmHg 88%
    04:00 -6°C° 0 mm 5 mps 735 mmHg 88%
    05:00 -6°C° 0 mm 5 mps 736 mmHg 89%
    06:00 -6°C° 0 mm 5 mps 736 mmHg 89%
    07:00 -6°C° 0.1 mm 6 mps 737 mmHg 88%
    08:00 -6°C° 0.1 mm 6 mps 737 mmHg 86%
    09:00 -6°C° 0.1 mm 6 mps 738 mmHg 84%
    10:00 -7°C° 0 mm 7 mps 739 mmHg 82%
    11:00 -8°C° 0 mm 7 mps 739 mmHg 81%
    12:00 -8°C° 0 mm 7 mps 740 mmHg 79%
    13:00 -8°C° 0 mm 7 mps 740 mmHg 76%
    14:00 -9°C° 0 mm 7 mps 741 mmHg 72%
    15:00 -9°C° 0 mm 7 mps 741 mmHg 69%
    16:00 -9°C° 0 mm 6 mps 742 mmHg 72%
    17:00 -9°C° 0 mm 6 mps 742 mmHg 75%
    18:00 -10°C° 0 mm 6 mps 743 mmHg 77%
    19:00 -10°C° 0 mm 5 mps 743 mmHg 78%
    20:00 -9°C° 0 mm 4 mps 744 mmHg 79%
    21:00 -9°C° 0 mm 4 mps 744 mmHg 79%
    22:00 -10°C° 0 mm 4 mps 745 mmHg 80%
    23:00 -9°C° 0 mm 3 mps 745 mmHg 81%

    Tomorrow, 24 January, Friday

    Time Temperature Precipitation Wind Pressure Humidity
    00:00 -9°C° 0 mm 3 mps 745 mmHg 81%
    01:00 -10°C° 0 mm 4 mps 746 mmHg 83%
    02:00 -10°C° 0 mm 4 mps 746 mmHg 85%
    03:00 -10°C° 0 mm 4 mps 747 mmHg 87%
    04:00 -10°C° 0 mm 4 mps 746 mmHg 89%
    05:00 -10°C° 0 mm 4 mps 746 mmHg 90%
    06:00 -9°C° 0 mm 3 mps 746 mmHg 92%
    07:00 -10°C° 0 mm 4 mps 746 mmHg 91%
    08:00 -10°C° 0 mm 4 mps 746 mmHg 90%
    09:00 -10°C° 0 mm 5 mps 746 mmHg 89%
    10:00 -8°C° 0 mm 5 mps 745 mmHg 90%
    11:00 -9°C° 0 mm 6 mps 744 mmHg 90%
    12:00 -8°C° 0 mm 7 mps 743 mmHg 90%
    13:00 -7°C° 0.2 mm 7 mps 743 mmHg 91%
    14:00 -7°C° 0.2 mm 8 mps 742 mmHg 92%
    15:00 -6°C° 0.2 mm 8 mps 741 mmHg 93%
    16:00 -6°C° 0.2 mm 8 mps 740 mmHg 94%
    17:00 -6°C° 0.2 mm 8 mps 739 mmHg 94%
    18:00 -5°C° 0.2 mm 8 mps 738 mmHg 94%
    19:00 -4°C° 0.3 mm 8 mps 738 mmHg 95%
    20:00 -2°C° 0.3 mm 7 mps 737 mmHg 95%
    21:00 -1°C° 0.3 mm 7 mps 737 mmHg 96%
    22:00 -1°C° 0.1 mm 7 mps 737 mmHg 96%
    23:00 -1°C° 0.1 mm 8 mps 736 mmHg 96%

    Day after tomorrow, 25 January, Saturday

    Time Temperature Precipitation Wind Pressure Humidity
    00:00 -1°C° 0.1 mm 8 mps 736 mmHg 96%
    01:00 -1°C° 0 mm 7 mps 736 mmHg 95%
    02:00 -1°C° 0 mm 7 mps 736 mmHg 94%
    03:00 -2°C° 0 mm 6 mps 737 mmHg 93%
    04:00 -2°C° 0 mm 6 mps 737 mmHg 93%
    05:00 -1°C° 0 mm 5 mps 737 mmHg 94%
    06:00 -1°C° 0 mm 5 mps 737 mmHg 94%
    07:00 -2°C° 0.1 mm 6 mps 737 mmHg 93%
    08:00 -2°C° 0.1 mm 6 mps 737 mmHg 93%
    09:00 -2°C° 0.1 mm 7 mps 737 mmHg 92%
    10:00 -2°C° 0 mm 6 mps 736 mmHg 90%
    11:00 -2°C° 0 mm 6 mps 736 mmHg 89%
    12:00 -1°C° 0 mm 5 mps 736 mmHg 87%
    13:00 -2°C° 0 mm 6 mps 736 mmHg 85%
    14:00 -2°C° 0 mm 6 mps 736 mmHg 83%
    15:00 -2°C° 0 mm 7 mps 735 mmHg 81%
    16:00 -2°C° 0 mm 7 mps 735 mmHg 81%
    17:00 -3°C° 0 mm 7 mps 735 mmHg 81%
    18:00 -3°C° 0 mm 7 mps 735 mmHg 80%
    19:00 -3°C° 0.2 mm 7 mps 735 mmHg 83%
    20:00 -4°C° 0.2 mm 7 mps 735 mmHg 85%
    21:00 -4°C° 0.2 mm 7 mps 735 mmHg 88%
    22:00 -4°C° 0.1 mm 7 mps 736 mmHg 85%
    23:00 -4°C° 0.1 mm 7 mps 736 mmHg 83%

    26 January, Sunday

    Time Temperature Precipitation Wind Pressure Humidity
    00:00 -6°C° 0.1 mm 7 mps 737 mmHg 80%
    01:00 -6°C° 0 mm 7 mps 737 mmHg 81%
    02:00 -6°C° 0 mm 7 mps 738 mmHg 82%
    03:00 -6°C° 0 mm 7 mps 738 mmHg 83%
    04:00 -6°C° 0 mm 7 mps 739 mmHg 83%
    05:00 -6°C° 0 mm 7 mps 740 mmHg 83%
    06:00 -7°C° 0 mm 7 mps 740 mmHg 83%
    07:00 -7°C° 0 mm 7 mps 741 mmHg 82%
    08:00 -7°C° 0 mm 7 mps 742 mmHg 82%
    09:00 -7°C° 0 mm 7 mps 743 mmHg 81%
    10:00 -7°C° 0 mm 7 mps 744 mmHg 80%
    11:00 -6°C° 0 mm 7 mps 745 mmHg 78%
    12:00 -6°C° 0 mm 7 mps 746 mmHg 77%
    13:00 -6°C° 0 mm 7 mps 746 mmHg 77%
    14:00 -6°C° 0 mm 7 mps 747 mmHg 77%
    15:00 -5°C° 0 mm 6 mps 748 mmHg 77%
    16:00 -6°C° 0 mm 6 mps 748 mmHg 78%
    17:00 -6°C° 0 mm 5 mps 749 mmHg 80%
    18:00 -7°C° 0 mm 5 mps 750 mmHg 82%
    19:00 -7°C° 0 mm 4 mps 750 mmHg 84%
    20:00 -7°C° 0 mm 4 mps 751 mmHg 86%
    21:00 -7°C° 0 mm 3 mps 751 mmHg 89%
    22:00 -7°C° 0 mm 3 mps 751 mmHg 89%
    23:00 -7°C° 0 mm 3 mps 752 mmHg 90%

    27 January, Monday

    Time Temperature Precipitation Wind Pressure Humidity
    00:00 -7°C° 0 mm 3 mps 752 mmHg 90%
    01:00 -7°C° 0 mm 3 mps 752 mmHg 90%
    02:00 -8°C° 0 mm 4 mps 752 mmHg 89%
    03:00 -8°C° 0 mm 4 mps 752 mmHg 88%
    04:00 -8°C° 0 mm 4 mps 752 mmHg 87%
    05:00 -7°C° 0 mm 4 mps 752 mmHg 85%
    06:00 -7°C° 0 mm 4 mps 751 mmHg 84%
    07:00 -7°C° 0.1 mm 4 mps 751 mmHg 87%
    08:00 -5°C° 0.1 mm 4 mps 751 mmHg 90%
    09:00 -5°C° 0.1 mm 4 mps 751 mmHg 93%
    10:00 -5°C° 0.1 mm 5 mps 751 mmHg 92%
    11:00 -4°C° 0.1 mm 5 mps 751 mmHg 92%
    12:00 -4°C° 0.1 mm 5 mps 751 mmHg 91%
    13:00 -2°C° 0.1 mm 5 mps 750 mmHg 91%
    14:00 -2°C° 0.1 mm 5 mps 750 mmHg 90%
    15:00 -2°C° 0.1 mm 5 mps 749 mmHg 89%
    16:00 -2°C° 0 mm 5 mps 749 mmHg 90%
    17:00 -2°C° 0 mm 5 mps 749 mmHg 90%
    18:00 -2°C° 0 mm 5 mps 749 mmHg 90%
    19:00 -4°C° 0 mm 5 mps 749 mmHg 91%
    20:00 -4°C° 0 mm 5 mps 748 mmHg 91%
    21:00 -4°C° 0 mm 5 mps 748 mmHg 92%
    22:00 -4°C° 0.2 mm 5 mps 748 mmHg 93%
    23:00 -4°C° 0.2 mm 5 mps 747 mmHg 95%

    28 January, Tuesday

    Time Temperature Precipitation Wind Pressure Humidity
    00:00 -4°C° 0.2 mm 5 mps 747 mmHg 96%
    01:00 -4°C° 0.2 mm 5 mps 747 mmHg 96%
    02:00 -4°C° 0.2 mm 5 mps 746 mmHg 96%
    03:00 -4°C° 0.2 mm 5 mps 745 mmHg 96%
    04:00 -4°C° 0.2 mm 5 mps 745 mmHg 96%
    05:00 -4°C° 0.2 mm 5 mps 745 mmHg 97%
    06:00 -4°C° 0.2 mm 5 mps 744 mmHg 97%
    07:00 -2°C° 0.2 mm 4 mps 744 mmHg 97%
    08:00 -2°C° 0.2 mm 4 mps 744 mmHg 97%
    09:00 -1°C° 0.2 mm 4 mps 744 mmHg 97%
    10:00 -1°C° 0.1 mm 4 mps 744 mmHg 98%
    11:00 0°C° 0.1 mm 3 mps 744 mmHg 98%
    12:00 -1°C° 0.1 mm 3 mps 744 mmHg 98%
    13:00 -1°C° 0.1 mm 3 mps 743 mmHg 98%
    14:00 -1°C° 0.1 mm 2 mps 743 mmHg 98%
    15:00 -1°C° 0.1 mm 2 mps 743 mmHg 98%
    16:00 -1°C° 0.1 mm 2 mps 744 mmHg 98%
    17:00 -1°C° 0.1 mm 2 mps 744 mmHg 98%
    18:00 -1°C° 0.1 mm 2 mps 745 mmHg 98%
    19:00 -1°C° 0 mm 2 mps 745 mmHg 98%
    20:00 -1°C° 0 mm 2 mps 746 mmHg 97%
    21:00 -1°C° 0 mm 2 mps 746 mmHg 97%
    22:00 -1°C° 0 mm 2 mps 746 mmHg 97%
    23:00 -2°C° 0 mm 2 mps 747 mmHg 97%
    Show more